Regional Weather Roundup
Issued by NWS Raleigh/Durham, NC

Home | Current Version | Previous Version | Text Only | Print | Product List | Glossary On
Versions: 1 2 3 4 5 6 7 8 9 10 11 12 13 14 15 16 17 18 19 20 21 22 23 24 25 26 27
000
ASUS42 KRAH 290010
RWRRAH
NORTH CAROLINA WEATHER ROUNDUP
NATIONAL WEATHER SERVICE RALEIGH NC
800 PM EDT THU APR 28 2016

NOTE: "FAIR" INDICATES FEW OR NO CLOUDS BELOW 12,000 FEET WITH NO
SIGNIFICANT WEATHER AND/OR OBSTRUCTIONS TO VISIBILITY.

NCZ001-053-055-056-065-067-290100-
WESTERN NORTH CAROLINA

CITY           SKY/WX    TMP DP  RH WIND       PRES   REMARKS
ASHEVILLE      CLEAR     76  44  32 N12       29.93R
JEFFERSON      CLEAR     70  45  40 W8        29.96R
MORGANTON      PTCLDY    73  69  86 CALM      29.91R
HICKORY        CLOUDY    73  66  78 NE5       29.86R
RUTHERFORDTON  CLEAR    N/A N/A N/A W3        29.87R
MOUNT AIRY     CLOUDY    73  68  82 SE3       29.87S
BOONE          CLEAR     70  42  36 W8        29.98R
$$

NCZ021-022-025-041-071-084-088-290100-
CENTRAL NORTH CAROLINA

CITY           SKY/WX    TMP DP  RH WIND       PRES   REMARKS
CHARLOTTE      PTCLDY    79  60  52 SW6       29.85R
GREENSBORO     CLOUDY    70  61  73 E6        29.85R
WINSTON-SALEM  CLOUDY    77  59  53 SW3       29.86R
RALEIGH-DURHAM TSTM      69  64  84 N5G16     29.87R
FORT BRAGG     PTCLDY    82  65  56 S7        29.84R
FAYETTEVILLE   MOCLDY    81  65  58 SW10      29.85R
BURLINGTON     CLOUDY    66  62  87 SE3       29.85R
LAURINBURG     MOCLDY    81  65  58 S12       29.85R
$$

NCZ011-015-027-028-043-044-047-080-103-290100-
NORTHEASTERN NORTH CAROLINA

CITY           SKY/WX    TMP DP  RH WIND       PRES   REMARKS
ROCKY MT-WILSO LGT RAIN  68  66  93 CALM      29.84S
GREENVILLE     CLOUDY    79  64  61 CALM      29.87S
WASHINGTON     CLOUDY    73  68  85 E5        29.85R
ELIZABETH CITY CLOUDY    63  61  93 NE9       29.90R
MANTEO         NOT AVBL
CAPE HATTERAS  CLOUDY    70  67  90 SW12      29.90R
$$

NCZ078-087-090-091-093-098-101-290100-
SOUTHEASTERN NORTH CAROLINA

CITY           SKY/WX    TMP DP  RH WIND       PRES   REMARKS
LUMBERTON      CLOUDY    80  67  64 S12G18    29.86R
GOLDSBORO      PTCLDY    75  72  88 SW12      29.83F THUNDER
KINSTON        PTCLDY    79  63  57 S7        29.85R
KENANSVILLE    CLOUDY    80  64  58 CALM      29.89R
NEW BERN       CLOUDY    74  63  68 S12       29.89R
CHERRY POINT   CLOUDY    72  64  76 SW12      29.91R
BEAUFORT       CLOUDY    70  67  90 SW12      29.91R
JACKSONVILLE   CLOUDY    75  62  64 S12       29.89R
WILMINGTON     CLEAR     75  65  70 SW12G21   29.91R
$$





USA.gov is the U.S. government's official web portal to all federal, state and local government web resources and services.